IRIDIUM 97 [-]

Last updated on Sat Dec 28 2019 04:30:35 GMT+0000 (Coordinated Universal Time)

1 27450U 02031A 19361.58712783 .20755968 -15912-5 23587-3 0 9999 2 27450 86.6459 291.8942 0062840 95.8997 266.5968 16.42326587923088

Satellite not in orbit